"Pseudo-MPEC" for A11izBQ

Created 2025 Feb 7 4:31:03 UT using Find_Orb

Click here for an explanation of pseudo-MPECs

 
 Astrometry: 
     A11izBQ* C2025 02 02TV^BKl,M\*8X'dA+.IhkUAstrometry9sd_P%redacted;t#6DWFT05
     A11izBQ  C2025 02 02\SLO:yeDkC%VddgS/Cl\aR2gL5WJl$,P5:)8uDq+b\I*52M[n4g'T05
     A11izBQ  C2025 02 02Um3=ck$=u9W$nclickoSlf8Ta^here7MeMBT:I/.?v%\g)ybwVAkT05
     A11izBQ  C2025 02 02%t]F37HNP:;gxI[!for3i@/oWwRV9OexplanationgZ@F/#lvooJT05

Station data:
(T05) ATLAS-HKO, Haleakala  (N20.707551 W156.257010)  US/Hawaii.  Observers
   L. Denneau, A. Heinze, H. Weiland, J. Tonry, H. Flewelling, A.
   Fitzsimmons, D. Young, B. Stalder. Measurers L. Denneau, A. Heinze, J.
   Tonry. 0.5-m f/2.0 Schmidt + CCD.

Orbital elements:  A11izBQ
   Perigee 2025 Feb 1.94835 +/- 0.0733 TT = 22:45:37 (JD 2460708.44835)
Epoch 2025 Feb  2.0 TT = JDT 2460708.5                           AutoNEOCP
M  19.85452327 +/- 25               (J2000 equator)
n 384.40451957 +/- 46.6             Peri.  158.56895 +/- 2.5
a 40433.7960 +/- 3269               Node   154.53079 +/- 1.3
e   0.7138404 +/- 0.0394            Incl.    4.71025 +/- 0.22
P1348.554m/0.936d          H 32.86  G  0.15   U 15.3
q 11570.5178 +/- 2526    Q 69297.0742 +/- 4023
From 4 observations 2025 Feb. 2 (31.5 min); mean residual 0".68
Residuals in arcseconds: 
250202 T05  .75+  .16+    250202 T05  .90+  .20+    
250202 T05  1.5-  .32-    250202 T05  .18-  .04-    

Ephemerides (geocentric):
Date (UTC) HH   RA             Dec           delta  r     elong  mag " sig PA
---- --------  ------------   ------------  ------ ------ -----  --- --------
2025 02 07 05  09 35 28.730   -00 49 58.30   66524 .98672 163.5 17.0 978'  85
2025 02 07 06  09 52 37.202   -00 28 54.70   64020 .98671 162.6 16.9  17d  85
2025 02 07 07  10 11 24.934   -00 05 37.93   60645 .98669 160.6 16.9  18d  85
2025 02 07 08  10 32 46.221   +00 20 51.48   56322 .98666 157.3 16.8  19d  85
2025 02 07 09  10 58 10.708   +00 52 07.27   50941 .98662 152.6 16.7  22d  85
2025 02 07 10  11 30 25.640   +01 30 49.30   44339 .98657 145.9 16.6  25d  86
2025 02 07 11  12 15 39.124   +02 21 52.26   36278 .98650 135.8 16.5  32d  86
2025 02 07 12  13 31 19.055   +03 33 58.39   26451 .98642 118.1 16.3  45d  87
2025 02 07 13  16 34 05.487   +04 43 04.94   15239 .98632  74.5 16.8  85d  90
2025 02 07 14  00 18 57.621   -02 25 20.10   13737 .98629  44.8 18?? 167d  94
2025 02 07 15  03 58 23.344   -04 42 54.51   24775 .98638  96.9 16.8 124d  90
2025 02 07 16  05 22 40.452   -04 31 47.28   34893 .98647 116.9 16.9 123d  88
2025 02 07 17  06 11 08.095   -04 08 40.38   43206 .98655 128.3 17.0 159d  87
2025 02 07 18  06 44 59.099   -03 45 52.06   50015 .98662 136.1 17.1  99d  87
2025 02 07 19  07 11 18.739   -03 24 41.12   55571 .98668 142.0 17.2  52d  86
2025 02 07 20  07 33 14.420   -03 04 57.23   60049 .98673 146.8 17.2  37d  86
2025 02 07 21  07 52 24.476   -02 46 17.89   63564 .98677 150.8 17.2  29d  86
2025 02 07 22  08 09 47.449   -02 28 21.37   66197 .98680 154.2 17.2  25d  86
2025 02 07 23  08 26 02.039   -02 10 48.25   68004 .98683 157.2 17.2  23d  85
2025 02 08 00  08 41 36.504   -01 53 20.65   69019 .98685 159.8 17.2  21d  85
2025 02 08 01  08 56 53.741   -01 35 41.11   69260 .98687 161.8 17.1  20d  85
2025 02 08 02  09 12 14.520   -01 17 31.16   68731 .98687 163.3 17.0  20d  85
2025 02 08 03  09 28 00.056   -00 58 29.66   67424 .98687 164.0 17.0  19d  85
2025 02 08 04  09 44 34.729   -00 38 10.49   65313 .98686 163.7 16.9  20d  85
2025 02 08 05  10 02 29.807   -00 15 59.01   62358 .98685 162.4 16.9  20d  85
2025 02 08 06  10 22 29.700   +00 08 53.97   58495 .98683 159.8 16.8  22d  85
2025 02 08 07  10 45 44.145   +00 37 43.34   53630 .98679 155.9 16.7  24d  85
2025 02 08 08  11 14 15.513   +01 12 31.99   47630 .98675 150.3 16.6  27d  85
2025 02 08 09  11 52 10.990   +01 56 58.44   40294 .98669 142.1 16.5  32d  86
2025 02 08 10  12 49 43.613   +02 57 52.14   31338 .98662 128.9 16.3  42d  86
2025 02 08 11  14 42 32.761   +04 21 50.01   20549 .98652 102.1 16.2  65d  88
2025 02 08 12  20 27 04.702   +02 09 53.19   11615 .98643  22.8 22?? 145d  94
2025 02 08 13  02 46 27.014   -04 23 32.18   19406 .98648  78.8 17.1 128d  92
2025 02 08 14  04 50 11.598   -04 41 15.95   30349 .98658 108.4 16.9 107d  89
2025 02 08 15  05 51 05.045   -04 20 06.67   39484 .98666 122.8 17.0 108d  88
2025 02 08 16  06 30 30.272   -03 56 32.42   46968 .98674 132.0 17.1 133d  87
2025 02 08 17  06 59 50.491   -03 34 24.47   53091 .98680 138.7 17.2 136d  87
2025 02 08 18  07 23 34.573   -03 13 53.90   58061 .98686 144.0 17.2  66d  86
2025 02 08 19  07 43 53.510   -02 54 40.03   62020 .98690 148.4 17.3  45d  86
2025 02 08 20  08 02 01.052   -02 36 19.80   65062 .98694 152.2 17.3  35d  86
2025 02 08 21  08 18 43.669   -02 18 32.47   67255 .98697 155.5 17.2  30d  86
2025 02 08 22  08 34 33.729   -02 00 59.39   68641 .98700 158.3 17.2  27d  85
2025 02 08 23  08 49 56.174   -01 43 22.91   69247 .98701 160.7 17.1  25d  85
2025 02 09 00  09 05 12.428   -01 25 25.14   69083 .98703 162.7 17.1  24d  85
2025 02 09 01  09 20 43.172   -01 06 46.34   68146 .98703 164.0 17.0  23d  85
2025 02 09 02  09 36 50.900   -00 47 03.05   66420 .98703 164.4 16.9  23d  85
2025 02 09 03  09 54 03.028   -00 25 45.15   63871 .98702 163.8 16.9  23d  85
2025 02 09 04  10 12 56.687   -00 02 11.26   60447 .98700 161.9 16.8  24d  85